Location: Pitton
(51.0667°N, 1.7000°W)
Time: 19:41:48
(UTC+00:00)

Cosmos 2333 - Pass Details

Date: 17 September 2019
Orbit: 831 x 865 km, 70.9° (Epoch: 21 October)

Event Time Altitude Azimuth Distance (km) Brightness Sun altitude
Rises 18:39:24 0° 329° (NNW) 3,400 8.0 -4.3°
Reaches altitude 10° 18:41:51 10° 330° (NNW) 2,466 7.2 -4.7°
Maximum altitude 18:47:32 87° 60° (ENE) 853 4.3 -5.5°
Drops below altitude 10° 18:53:13 10° 151° (SSE) 2,473 6.3 -6.4°
Sets 18:55:40 0° 151° (SSE) 3,410 7.0 -6.8°
